NOAA-19
1 33591U 09005A 24277.84791714 .00001036 00000-0 57805-3 0 9996
2 33591 99.0353 334.7410 0013444 350.0131 10.0771 14.13140420806979
SRMSAT
1 37841U 11058D 24277.53495326 .00001253 00000-0 53968-3 0 9992
2 37841 19.9709 221.4166 0011760 205.1606 310.9015 14.11227067669884
RS-40
1 38735U 12041C 24277.87269687 .00000061 00000-0 36950-3 0 9992
2 38735 82.4705 102.1222 0017236 344.6791 15.3765 12.42617258552767
ZACUBE-1
1 39417U 13066B 24277.83168593 .00017560 00000-0 17207-2 0 9993
2 39417 97.7463 231.5644 0049470 157.8680 202.4690 14.91387404587763
Delfi-N3xt
1 39428U 13066N 24277.48637993 .00020841 00000-0 24794-2 0 9996
2 39428 97.8328 193.1187 0098866 96.5700 264.6779 14.80903429582106
GOMX-1
1 39430U 13066Q 24277.87905592 .00011151 00000-0 18098-2 0 9999
2 39430 97.7131 145.6599 0135958 267.0689 91.4950 14.65294067578953
LO-74
1 39440U 13066AA 24277.78969306 .00017704 00000-0 19830-2 0 9998
2 39440 97.8204 219.2697 0065117 279.2841 80.1014 14.85362395585649
AO-73
1 39444U 13066AE 24277.83001741 .00024810 00000-0 22236-2 0 9998
2 39444 97.7313 235.0093 0047589 136.6083 223.8899 14.94891323586912
DTUSAT-2
1 40030U 14033W 24277.84830792 .00024332 00000-0 18962-2 0 9993
2 40030 98.0182 233.4252 0010821 160.4979 199.6660 15.01144152559499
EO-80
1 40032U 14033Y 24277.88103971 .00028059 00000-0 21811-2 0 9998
2 40032 98.0150 233.4249 0011779 114.6805 245.5646 15.01199653559484
XW-2C
1 40906U 15049H 24277.82850826 .00109051 00000-0 16533-2 0 9995
2 40906 97.4693 298.2221 0003741 248.5131 111.5724 15.54239413501277
XW-2D
1 40907U 15049J 24277.78648024 .00247437 00000-0 18384-2 0 9993
2 40907 97.4585 302.4458 0003600 196.7044 163.4101 15.72099887501611
LILACSAT-2
1 40908U 15049K 24277.84975112 .00031091 00000-0 10770-2 0 9990
2 40908 97.5235 287.5810 0010258 338.3396 21.7408 15.29740529500085
XW-2B
1 40911U 15049N 24277.89471228 .00232832 00000-0 18900-2 0 9997
2 40911 97.4570 302.4199 0003303 203.9884 156.1225 15.70014488501488
IO-86
1 40931U 15052B 24270.29994034 .00002074 00000-0 19195-3 0 9996
2 40931 5.9998 350.0993 0012711 76.7416 283.4129 14.78150863486449
ChubuSat-2
1 41338U 16012B 24277.48166667 .00017126 00000-0 10078-2 0 9990
2 41338 31.0014 52.8201 0009939 243.6630 116.2988 15.10442971473971
ChubuSat-3
1 41339U 16012C 24277.80412956 .00017657 00000-0 10624-2 0 9998
2 41339 31.0078 50.0000 0010124 250.2425 109.7121 15.09642015473990
Horyu-4
1 41340U 16012D 24277.86369541 .00041315 00000-0 17880-2 0 9996
2 41340 31.0028 345.1241 0007295 8.7132 351.3635 15.21220944474687
Lapan A3
1 41603U 16040E 24277.84177774 .00012113 00000-0 46362-3 0 9994
2 41603 97.1419 286.7307 0013812 78.3097 281.9691 15.26610924459795
Pratham
1 41783U 16059A 24277.58448551 .00004609 00000-0 85435-3 0 9993
2 41783 97.8343 291.8514 0033189 38.9585 321.4001 14.65372426428411
CAS-2T
1 41847U 16066G 24277.79335183 .00007397 00000-0 10771-2 0 9998
2 41847 98.4509 348.2831 0351265 209.9756 148.0908 14.41917659415142
CAS-4B
1 42759U 17034B 24277.87394654 .00054906 00000-0 15934-2 0 9998
2 42759 43.0170 329.7805 0012353 359.2395 0.8439 15.34650621404069
CAS-4A
1 42761U 17034D 24277.86494560 .00056161 00000-0 16195-2 0 9992
2 42761 43.0207 328.0816 0012220 10.5984 349.5126 15.34842454404075
D-SAT
1 42794U 17036AF 24277.86497107 .00019699 00000-0 12803-2 0 9997
2 42794 97.4893 255.9545 0107747 137.3125 223.6536 15.03298160397068
TechnoSat
1 42829U 17042E 24277.44831308 .00012043 00000-0 10181-2 0 9995
2 42829 97.3892 92.5840 0013822 71.6954 288.5771 14.98129747393376
AO-91
1 43017U 17073E 24277.16633489 .00023387 00000-0 13630-2 0 9993
2 43017 97.5570 148.9456 0199296 292.0790 65.9376 14.96722067371799
TianYi 6
1 43158U 18008D 24272.14170631 .00372783 00000-0 20671-2 0 9996
2 43158 97.2474 322.6495 0002525 137.7104 222.4358 15.78529367370508
S-Net D
1 43186U 18014G 24277.72649361 .00016783 00000-0 11324-2 0 9994
2 43186 97.5781 177.7194 0010492 10.7872 349.3579 15.06652073364837
S-Net B
1 43187U 18014H 24277.72937499 .00017066 00000-0 11515-2 0 9994
2 43187 97.5787 177.6797 0011060 5.0755 355.0583 15.06642176364833
S-Net A
1 43188U 18014J 24277.72754021 .00017119 00000-0 11547-2 0 9997
2 43188 97.5790 177.7998 0010968 6.3588 353.7776 15.06654628364830
S-Net C
1 43189U 18014K 24277.66501177 .00016927 00000-0 11418-2 0 9996
2 43189 97.5804 177.7074 0012336 357.0315 3.0837 15.06641709363374
Ten-Koh
1 43677U 18084G 24277.38470584 .00011199 00000-0 96526-3 0 9991
2 43677 98.0760 74.2806 0013695 23.9765 336.2091 14.97423503322900
PO-101
1 43678U 18084H 24277.85517478 .00008088 00000-0 72284-3 0 9996
2 43678 98.0839 79.1720 0009324 37.8391 322.3482 14.96145420323167
QO-100
1 43700U 18090A 24277.75802017 .00000151 00000-0 00000+0 0 9990
2 43700 0.0165 228.4191 0001026 337.0393 106.2513 1.00275261 21681
MinXSS-2
1 43758U 18099A 24277.72084042 .00033461 00000-0 18778-2 0 9993
2 43758 97.5418 338.6231 0014002 306.0648 53.9286 15.13186862319178
AO-95
1 43770U 18099N 24277.65843035 .00023981 00000-0 15183-2 0 9997
2 43770 97.5326 333.3230 0012286 358.3816 1.7370 15.08905158318906
RANGE-B
1 43772U 18099Q 24277.66240042 .00038261 00000-0 20568-2 0 9999
2 43772 97.5118 337.2950 0004303 244.4750 115.6037 15.14764519319112
RANGE-A
1 43773U 18099R 24277.87331879 .00018680 00000-0 13392-2 0 9992
2 43773 97.4898 327.6711 0011246 330.8134 29.2463 15.04354540318766
MOVE-II
1 43780U 18099Y 24277.44235895 .00066830 00000-0 27351-2 0 9994
2 43780 97.5077 339.8904 0004176 321.3109 38.7828 15.24051831319360
SNUSat 2
1 43782U 18099AA 24277.67886114 .00018337 00000-0 12047-2 0 9992
2 43782 97.5016 331.8839 0012130 293.5197 66.4756 15.07604121318904
SnugLite
1 43784U 18099AC 24277.73610416 .00024810 00000-0 15618-2 0 9991
2 43784 97.4826 331.2346 0002481 308.3303 51.7703 15.09166833318996
ITASat 1
1 43786U 18099AE 24277.74277738 .00018751 00000-0 12596-2 0 9999
2 43786 97.4982 332.0350 0015603 348.3407 11.7457 15.06734170318909
EAGLET 1
1 43790U 18099AJ 24277.71222599 .00014673 00000-0 10444-2 0 9995
2 43790 97.5155 332.4728 0012387 324.3374 35.7023 15.04666616318589
ESEO
1 43792U 18099AL 24277.86779583 .00009268 00000-0 73754-3 0 9991
2 43792 97.4987 328.7447 0006094 297.7785 62.2821 15.00593911318490
CSIM
1 43793U 18099AM 24277.78449295 .00080720 00000-0 33472-2 0 9991
2 43793 97.5193 342.0283 0009496 290.1289 69.8925 15.23508122319262
JO-97
1 43803U 18099AX 24277.72556750 .00027846 00000-0 16690-2 0 9995
2 43803 97.5072 334.1456 0007828 290.2623 69.7765 15.10910305319069
Suomi 100
1 43804U 18099AY 24277.71004110 .00025432 00000-0 15708-2 0 9991
2 43804 97.5146 333.8804 0013402 290.2669 69.7119 15.09787304319039
ISAT
1 43879U 18111D 24277.71563852 .00037693 00000-0 20052-2 0 9991
2 43879 97.6065 183.1288 0011939 1.6183 358.5085 15.15087099313803
UWE-4
1 43880U 18111E 24277.71954572 .00032243 00000-0 17885-2 0 9992
2 43880 97.5996 182.8489 0015800 7.0707 353.0744 15.13589568313829
Sparrow
1 43881U 18111F 24277.71289850 .00039097 00000-0 20443-2 0 9991
2 43881 97.6166 185.2520 0011353 40.5204 319.6871 15.15695334313893
